User: anonymous   Login
Location: Unspecified
(0.0000°N, 0.0000°E)
Time: 20:42:31
(UTC+00:00)
Language:

MERIDIAN 1 - Orbit

View from above orbital plane
View from above orbital plane
View from above satellite
View from above satellite

Ground track
Ground track

The orbit data is extracted from the following two-line orbital elements,

1 29668U 06061A   17172.26232111 -.00000149 +00000-0 +00000-0 0  9995
2 29668 064.9024 093.8533 7184677 239.8853 344.3821 02.00617965076865
Epoch (UTC): 21 June 2017 06:17:44
Eccentricity: 0.7184677
inclination: 64.9024°
perigee height: 1098 km
apogee height: 39256 km
right ascension of ascending node: 93.8533°
argument of perigee: 239.8853°
revolutions per day: 2.00617965
mean anomaly at epoch: 344.3821°
orbit number at epoch: 7686

The dashed part of the orbit path shows where the satellite is in the earth's shadow,  

DLR